• In Uzbekistan
  • List of Countries
  • For 7 days
  • Water Temperature
  • Satellite Maps
  • Weather Map
  • Weather Widgets
  • user-avatar
    Login

    Hourly Weather Aleksandria

    Today, 24 November, Friday

    Time Temperature Precipitation Wind Pressure Humidity
    00:00 +18°C° 0 mm 1 mps 765 mmHg 55%
    01:00 +18°C° 0 mm 1 mps 765 mmHg 56%
    02:00 +18°C° 0 mm 1 mps 765 mmHg 56%
    03:00 +16°C° 0 mm 1 mps 765 mmHg 57%
    04:00 +16°C° 0 mm 1 mps 765 mmHg 57%
    05:00 +16°C° 0 mm 2 mps 765 mmHg 58%
    06:00 +17°C° 0 mm 2 mps 765 mmHg 57%
    07:00 +17°C° 0 mm 2 mps 765 mmHg 55%
    08:00 +17°C° 0 mm 2 mps 765 mmHg 54%
    09:00 +19°C° 0 mm 2 mps 765 mmHg 51%
    10:00 +20°C° 0 mm 2 mps 765 mmHg 47%
    11:00 +23°C° 0 mm 1 mps 766 mmHg 44%
    12:00 +23°C° 0 mm 2 mps 765 mmHg 43%
    13:00 +23°C° 0 mm 2 mps 765 mmHg 43%
    14:00 +23°C° 0 mm 2 mps 765 mmHg 42%
    15:00 +23°C° 0 mm 2 mps 765 mmHg 45%
    16:00 +21°C° 0 mm 2 mps 765 mmHg 49%
    17:00 +20°C° 0 mm 2 mps 764 mmHg 53%
    18:00 +20°C° 0 mm 2 mps 765 mmHg 57%
    19:00 +19°C° 0 mm 2 mps 765 mmHg 61%
    20:00 +18°C° 0 mm 2 mps 765 mmHg 65%
    21:00 +19°C° 0 mm 1 mps 765 mmHg 66%
    22:00 +19°C° 0 mm 1 mps 765 mmHg 67%
    23:00 +19°C° 0 mm 1 mps 765 mmHg 67%

    Tomorrow, 25 November, Saturday

    Time Temperature Precipitation Wind Pressure Humidity
    00:00 +18°C° 0 mm 1 mps 765 mmHg 68%
    01:00 +18°C° 0 mm 1 mps 765 mmHg 69%
    02:00 +17°C° 0 mm 2 mps 765 mmHg 70%
    03:00 +17°C° 0 mm 2 mps 765 mmHg 68%
    04:00 +17°C° 0 mm 2 mps 765 mmHg 66%
    05:00 +17°C° 0 mm 2 mps 764 mmHg 64%
    06:00 +17°C° 0 mm 2 mps 765 mmHg 62%
    07:00 +18°C° 0 mm 2 mps 765 mmHg 60%
    08:00 +19°C° 0 mm 1 mps 765 mmHg 57%
    09:00 +20°C° 0 mm 1 mps 765 mmHg 54%
    10:00 +21°C° 0 mm 1 mps 765 mmHg 50%
    11:00 +22°C° 0 mm 1 mps 765 mmHg 47%
    12:00 +21°C° 0 mm 2 mps 764 mmHg 45%
    13:00 +23°C° 0 mm 2 mps 764 mmHg 43%
    14:00 +23°C° 0 mm 2 mps 763 mmHg 42%
    15:00 +21°C° 0 mm 2 mps 763 mmHg 45%
    16:00 +21°C° 0 mm 3 mps 763 mmHg 49%
    17:00 +20°C° 0 mm 3 mps 764 mmHg 53%
    18:00 +20°C° 0 mm 2 mps 764 mmHg 55%
    19:00 +19°C° 0 mm 2 mps 764 mmHg 58%
    20:00 +20°C° 0 mm 1 mps 764 mmHg 61%
    21:00 +19°C° 0 mm 1 mps 764 mmHg 63%
    22:00 +19°C° 0 mm 1 mps 764 mmHg 66%
    23:00 +19°C° 0 mm 1 mps 764 mmHg 68%

    Day after tomorrow, 26 November, Sunday

    Time Temperature Precipitation Wind Pressure Humidity
    00:00 +18°C° 0.1 mm 1 mps 764 mmHg 70%
    01:00 +17°C° 0.1 mm 2 mps 764 mmHg 71%
    02:00 +17°C° 0.1 mm 3 mps 764 mmHg 73%
    03:00 +17°C° 0.3 mm 3 mps 764 mmHg 74%
    04:00 +17°C° 0.3 mm 3 mps 764 mmHg 76%
    05:00 +16°C° 0.3 mm 3 mps 763 mmHg 78%
    06:00 +17°C° 0.4 mm 3 mps 764 mmHg 76%
    07:00 +17°C° 0.4 mm 4 mps 764 mmHg 74%
    08:00 +18°C° 0.4 mm 4 mps 764 mmHg 72%
    09:00 +19°C° 0.3 mm 4 mps 764 mmHg 67%
    10:00 +20°C° 0.3 mm 4 mps 765 mmHg 62%
    11:00 +22°C° 0.3 mm 4 mps 765 mmHg 57%
    12:00 +22°C° 0.2 mm 5 mps 764 mmHg 56%
    13:00 +22°C° 0.2 mm 5 mps 764 mmHg 56%
    14:00 +22°C° 0.2 mm 6 mps 763 mmHg 55%
    15:00 +21°C° 0.1 mm 5 mps 763 mmHg 59%
    16:00 +20°C° 0.1 mm 4 mps 763 mmHg 62%
    17:00 +20°C° 0.1 mm 4 mps 764 mmHg 65%
    18:00 +19°C° 0 mm 3 mps 764 mmHg 67%
    19:00 +19°C° 0 mm 3 mps 764 mmHg 69%
    20:00 +18°C° 0 mm 2 mps 765 mmHg 70%
    21:00 +18°C° 0 mm 2 mps 765 mmHg 71%
    22:00 +18°C° 0 mm 2 mps 765 mmHg 72%
    23:00 +19°C° 0 mm 1 mps 765 mmHg 72%

    27 November, Monday

    Time Temperature Precipitation Wind Pressure Humidity
    00:00 +18°C° 0 mm 2 mps 765 mmHg 72%
    01:00 +17°C° 0 mm 2 mps 764 mmHg 73%
    02:00 +17°C° 0 mm 2 mps 764 mmHg 73%
    03:00 +17°C° 0 mm 3 mps 764 mmHg 74%
    04:00 +17°C° 0 mm 3 mps 764 mmHg 74%
    05:00 +17°C° 0 mm 3 mps 764 mmHg 75%
    06:00 +17°C° 0.1 mm 4 mps 764 mmHg 73%
    07:00 +18°C° 0.1 mm 4 mps 765 mmHg 72%
    08:00 +17°C° 0.1 mm 5 mps 765 mmHg 70%
    09:00 +19°C° 0.2 mm 5 mps 765 mmHg 65%
    10:00 +21°C° 0.2 mm 5 mps 765 mmHg 60%
    11:00 +22°C° 0.2 mm 5 mps 765 mmHg 55%
    12:00 +22°C° 0 mm 5 mps 764 mmHg 53%
    13:00 +22°C° 0 mm 5 mps 764 mmHg 51%
    14:00 +23°C° 0 mm 5 mps 763 mmHg 49%
    15:00 +22°C° 0 mm 4 mps 763 mmHg 51%
    16:00 +21°C° 0 mm 4 mps 763 mmHg 53%
    17:00 +20°C° 0 mm 4 mps 763 mmHg 54%
    18:00 +20°C° 0 mm 3 mps 763 mmHg 56%
    19:00 +20°C° 0 mm 3 mps 764 mmHg 58%
    20:00 +19°C° 0 mm 3 mps 764 mmHg 59%
    21:00 +19°C° 0 mm 3 mps 764 mmHg 60%
    22:00 +19°C° 0 mm 4 mps 764 mmHg 60%
    23:00 +18°C° 0 mm 4 mps 764 mmHg 60%

    28 November, Tuesday

    Time Temperature Precipitation Wind Pressure Humidity
    00:00 +17°C° 0 mm 5 mps 763 mmHg 59%
    01:00 +17°C° 0 mm 5 mps 763 mmHg 59%
    02:00 +17°C° 0 mm 5 mps 763 mmHg 58%
    03:00 +16°C° 0 mm 5 mps 763 mmHg 57%
    04:00 +16°C° 0 mm 5 mps 763 mmHg 56%
    05:00 +16°C° 0 mm 5 mps 763 mmHg 55%
    06:00 +16°C° 0 mm 5 mps 763 mmHg 52%
    07:00 +17°C° 0 mm 5 mps 763 mmHg 50%
    08:00 +17°C° 0 mm 5 mps 764 mmHg 47%
    09:00 +20°C° 0 mm 6 mps 764 mmHg 45%
    10:00 +21°C° 0 mm 6 mps 763 mmHg 42%
    11:00 +23°C° 0 mm 6 mps 763 mmHg 40%
    12:00 +23°C° 0 mm 6 mps 763 mmHg 40%
    13:00 +23°C° 0 mm 6 mps 762 mmHg 40%
    14:00 +23°C° 0 mm 7 mps 762 mmHg 41%
    15:00 +22°C° 0 mm 6 mps 762 mmHg 43%
    16:00 +21°C° 0 mm 6 mps 762 mmHg 46%
    17:00 +21°C° 0 mm 6 mps 762 mmHg 48%
    18:00 +20°C° 0 mm 6 mps 762 mmHg 49%
    19:00 +20°C° 0 mm 6 mps 762 mmHg 49%
    20:00 +20°C° 0 mm 6 mps 763 mmHg 49%
    21:00 +19°C° 0 mm 6 mps 763 mmHg 49%
    22:00 +19°C° 0 mm 5 mps 763 mmHg 50%
    23:00 +17°C° 0 mm 5 mps 763 mmHg 51%

    29 November, Wednesday

    Time Temperature Precipitation Wind Pressure Humidity
    00:00 +17°C° 0 mm 5 mps 763 mmHg 51%
    01:00 +16°C° 0 mm 6 mps 763 mmHg 51%
    02:00 +16°C° 0 mm 6 mps 762 mmHg 52%
    03:00 +16°C° 0 mm 6 mps 762 mmHg 53%
    04:00 +16°C° 0 mm 6 mps 762 mmHg 54%
    05:00 +15°C° 0 mm 6 mps 762 mmHg 55%
    06:00 +16°C° 0.1 mm 6 mps 763 mmHg 55%
    07:00 +16°C° 0.1 mm 7 mps 763 mmHg 55%
    08:00 +17°C° 0.1 mm 7 mps 763 mmHg 55%
    09:00 +18°C° 0.2 mm 7 mps 763 mmHg 52%
    10:00 +20°C° 0.2 mm 7 mps 763 mmHg 49%
    11:00 +21°C° 0.2 mm 7 mps 763 mmHg 47%
    12:00 +21°C° 0.1 mm 7 mps 763 mmHg 46%
    13:00 +22°C° 0.1 mm 7 mps 763 mmHg 46%
    14:00 +22°C° 0.1 mm 7 mps 762 mmHg 45%
    15:00 +21°C° 0 mm 7 mps 763 mmHg 47%
    16:00 +20°C° 0 mm 6 mps 763 mmHg 50%
    17:00 +19°C° 0 mm 6 mps 763 mmHg 52%
    18:00 +19°C° 0.1 mm 5 mps 764 mmHg 56%
    19:00 +17°C° 0.1 mm 5 mps 764 mmHg 59%
    20:00 +18°C° 0.1 mm 4 mps 764 mmHg 62%
    21:00 +18°C° 0.1 mm 4 mps 764 mmHg 65%
    22:00 +17°C° 0.1 mm 4 mps 765 mmHg 68%
    23:00 +17°C° 0.1 mm 4 mps 765 mmHg 71%
    Show more